Regional Weather Roundup
Issued by NWS Kansas City/Pleasant Hill, MO

Home | Current Version | Previous Version | Text Only | Print | Product List | Glossary On
Versions: 1 2 3 4 5 6 7 8 9 10 11 12 13 14 15 16 17 18 19 20 21 22 23 24 25 26 27 28
000
ASUS43 KEAX 260910
RWREAX

WEATHER ROUNDUP FOR EASTERN KANSAS AND NORTHWEST MISSOURI
NATIONAL WEATHER SERVICE KANSAS CITY/PLEASANT HILL MO
400 AM CDT TUE JUL 26 2016

KSZ040-057-103>105-MOZ028-029-037-043-261000-
...KANSAS CITY METROPOLITAN AREA...

CITY           SKY/WX    TMP DP  RH WIND       PRES   REMARKS
K.C. INTL      CLEAR     70  67  90 NE5       30.05S
K.C. DOWNTOWN  CLEAR     74  67  78 NE5       30.04R
LEES SUMMIT    CLOUDY    73  69  87 E3        30.05S
OLATHE - IXD   CLOUDY    72  69  90 CALM      30.05S
OLATHE - OJC   PTCLDY    71  68  90 E5        30.05S
LAWRENCE       CLEAR     66  65  96 CALM      30.04S

$$

MOZ001>008-011>017-020>025-030>033-038>040-044>046-053-054-261000-
...NORTHERN AND CENTRAL MISSOURI...

CITY           SKY/WX    TMP DP  RH WIND       PRES   REMARKS
ST. JOSEPH     CLEAR     65  63  93 N5        30.05S
MOSBY          SUNNY     68  66  94 CALM      30.05R
WHITEMAN AFB   PTCLDY    72  72 100 E2        30.03S
CLINTON        CLOUDY    72  72 100 CALM      30.03F
SEDALIA        CLOUDY    72  70  93 CALM      30.05S
WARSAW         NOT AVBL
CHILLICOTHE      N/A     69  67  93 CALM      30.06F
KIRKSVILLE     CLEAR     63  62  97 N3        30.07S

$$

MOZ041-047>049-056>058-063>065-088>090-097-261000-
...EASTERN AND SOUTHERN MISSOURI...

CITY           SKY/WX    TMP DP  RH WIND       PRES   REMARKS
ST. LOUIS INTL CLOUDY    79  73  82 CALM      30.01S
SPIRIT OF STL  CLOUDY    77  73  87 N3        30.00S
COLUMBIA       CLEAR     70  69  97 NE6       30.04S
JEFFERSON CITY CLEAR     70  69  97 CALM      30.02F
ROLLA          CLEAR     71  69  93 N3        30.02F
OSAGE BEACH    PTCLDY    71  70  96 NE3       30.03F
SPRINGFIELD    CLOUDY    74  71  91 E5        30.02F
BRANSON        CLOUDY    72  72 100 CALM      30.03S
JOPLIN         CLOUDY    74  72  93 E3        30.01F
WEST PLAINS    CLOUDY    75  72  90 CALM      30.05R

$$

IAZ060-094-KSZ022-034>040-054-083-096-NEZ052-066-093-261000-
...KANSAS...SOUTHEAST NEBRASKA AND IOWA...

CITY           SKY/WX    TMP DP  RH WIND       PRES   REMARKS
TOPEKA         CLEAR     68  66  93 CALM      30.04S
MANHATTAN      PTCLDY    67  64  90 CALM      30.06R
EMPORIA        CLOUDY    74  72  93 CALM      30.05R
CHANUTE        PTCLDY    74  72  93 NE3       30.01F
WICHITA        CLOUDY    76  72  87 E3        30.04S
OMAHA          CLEAR     65  62  90 CALM      30.08S
LINCOLN        CLEAR     66  64  93 N5        30.08F
FALLS CITY     PTCLDY    66  65  96 N5        30.06S
LAMONI         CLEAR     64  64 100 N5        30.07S
DES MOINES     CLEAR     72  66  81 CALM      30.07S

$$





USA.gov is the U.S. government's official web portal to all federal, state and local government web resources and services.